FW8537 Weather Reports


Display with metric or nautical units.
time (UTC)temp
F
wind
direction
speed
MPH
gust
MPH
rain 1hr
in
rain 24hr
in
rain mn
in
humidity
%
barometer
mb
20260507223503 84 114 8.0 14.0 0.00 0.00 0.00 78 1009.4
20260507223259 85 114 7.0 13.0 0.00 0.00 0.00 79 1009.4
20260507222503 85 88 7.0 13.0 0.00 0.00 0.00 79 1009.4
20260507222004 85 132 7.0 13.0 0.00 0.00 0.00 78 1009.4
20260507221513 84 128 5.0 11.0 0.00 0.00 0.00 78 1009.3
20260507221505 85 113 7.0 11.0 0.00 0.00 0.00 78 1009.4
20260507221004 85 124 8.0 13.0 0.00 0.00 0.00 79 1009.4
20260507220757 85 123 8.0 13.0 0.00 0.00 0.00 77 1009.4
20260507220004 85 92 8.0 12.0 0.00 0.00 0.00 76 1009.4
20260507215955 85 102 8.0 12.0 0.00 0.00 0.00 76 1009.5
20260507215439 85 121 8.0 14.0 0.00 0.00 0.00 78 1009.5
20260507214936 85 103 9.0 14.0 0.00 0.00 0.00 78 1009.5
20260507214604 85 115 8.0 14.0 0.00 0.00 0.00 78 1009.4
20260507214436 85 119 9.0 14.0 0.00 0.00 0.00 78 1009.4
20260507213935 85 90 9.0 14.0 0.00 0.00 0.00 78 1009.4
20260507213432 85 119 8.0 15.0 0.00 0.00 0.00 77 1009.4
20260507213052 85 96 8.0 15.0 0.00 0.00 0.00 76 1009.3
20260507213027 85 127 7.0 15.0 0.00 0.00 0.00 77 1009.4
20260507213025 86 64 8.0 13.0 0.00 0.00 0.00 76 1009.5
20260507213006 86 132 8.0 15.0 0.00 0.00 0.00 76 1009.5
20260507211932 85 103 8.0 14.0 0.00 0.00 0.00 76 1009.5
20260507211551 85 117 7.0 12.0 0.00 0.00 0.00 76 1009.7
20260507211430 85 113 8.0 14.0 0.00 0.00 0.00 76 1009.8
20260507210930 86 107 8.0 14.0 0.00 0.00 0.00 76 1009.8
20260507210433 85 81 8.0 15.0 0.00 0.00 0.00 77 1009.8
20260507210223 86 111 8.0 15.0 0.00 0.00 0.00 76 1009.9
20260507210145 85 96 9.0 14.0 0.00 0.00 0.00 76 1009.7
20260507205431 86 80 8.0 14.0 0.00 0.00 0.00 76 1009.9
20260507204931 86 102 9.0 14.0 0.00 0.00 0.00 77 1009.9
20260507204530 85 100 8.0 14.0 0.00 0.00 0.00 77 1009.8
20260507204426 86 129 9.0 13.0 0.00 0.00 0.00 77 1009.9
20260507203926 86 126 8.0 12.0 0.00 0.00 0.00 76 1009.9
20260507203425 85 91 8.0 15.0 0.00 0.00 0.00 77 1009.9
20260507203029 85 77 7.0 14.0 0.00 0.00 0.00 77 1009.8
20260507202922 85 65 9.0 15.0 0.00 0.00 0.00 77 1009.9
20260507202719 85 84 8.0 16.0 0.00 0.00 0.00 77 1009.9
20260507201922 85 113 8.0 16.0 0.00 0.00 0.00 76 1009.9
20260507201713 86 102 9.0 16.0 0.00 0.00 0.00 76 1009.9
20260507201648 85 87 8.0 16.0 0.00 0.00 0.00 76 1009.8
20260507200922 86 88 9.0 16.0 0.00 0.00 0.00 75 1009.9
20260507200422 86 72 9.0 17.0 0.00 0.00 0.00 74 1009.9
20260507200015 86 83 9.0 17.0 0.00 0.00 0.00 72 1010.1
20260507195921 87 123 9.0 17.0 0.00 0.00 0.00 73 1010.2
20260507195421 87 81 7.0 14.0 0.00 0.00 0.00 75 1010.2
20260507194921 86 120 6.0 11.0 0.00 0.00 0.00 73 1010.2
20260507194504 86 73 6.0 9.0 0.00 0.00 0.00 75 1010.3
20260507194419 87 83 4.0 9.0 0.00 0.00 0.00 73 1010.4
20260507193919 87 80 5.0 10.0 0.00 0.00 0.00 74 1010.4
20260507193409 86 38 7.0 13.0 0.00 0.00 0.00 72 1010.4
20260507193115 86 82 8.0 12.0 0.00 0.00 0.00 72 1010.3
20260507192907 87 86 5.0 13.0 0.00 0.00 0.00 70 1010.5
20260507192708 89 86 4.0 11.0 0.00 0.00 0.00 70 1010.5
20260507191908 89 93 4.0 11.0 0.00 0.00 0.00 66 1010.5
20260507191550 90 87 7.0 11.0 0.00 0.00 0.00 64 1010.7
20260507191407 92 113 2.0 11.0 0.00 0.00 0.00 63 1010.9
20260507191256 94 339 2.0 9.0 0.00 0.00 0.00 54 1010.9
20260507190941 93 238 1.0 9.0 0.00 0.00 0.00 54 1010.9
20260507190033 94 249 2.0 5.0 0.00 0.00 0.00 52 1010.9
20260507185909 94 217 1.0 5.0 0.00 0.00 0.00 54 1011.0
20260507185406 94 279 1.0 3.0 0.00 0.00 0.00 56 1011.0
20260507184908 94 128 1.0 4.0 0.00 0.00 0.00 57 1011.0
20260507184506 93 222 0.0 4.0 0.00 0.00 0.00 56 1011.2
20260507184405 94 256 1.0 7.0 0.00 0.00 0.00 57 1011.3
20260507183904 94 261 2.0 7.0 0.00 0.00 0.00 56 1011.3
20260507183404 94 235 2.0 7.0 0.00 0.00 0.00 56 1011.3
20260507183006 93 222 1.0 6.0 0.00 0.00 0.00 56 1011.4
20260507182905 94 211 1.0 6.0 0.00 0.00 0.00 57 1011.5
20260507182403 93 299 1.0 4.0 0.00 0.00 0.00 59 1011.5
20260507181900 93 300 1.0 9.0 0.00 0.00 0.00 59 1011.5
20260507181646 92 215 2.0 9.0 0.00 0.00 0.00 59 1011.5
20260507181625 92 143 0.0 9.0 0.00 0.00 0.00 58 1011.4
20260507180902 92 224 2.0 7.0 0.00 0.00 0.00 57 1011.5
20260507180402 93 279 1.0 7.0 0.00 0.00 0.00 58 1011.5
20260507180032 92 240 0.0 7.0 0.00 0.00 0.00 58 1011.5
20260507175902 93 131 2.0 7.0 0.00 0.00 0.00 59 1011.6
20260507175402 94 213 2.0 7.0 0.00 0.00 0.00 57 1011.6
20260507175152 93 201 2.0 7.0 0.00 0.00 0.00 60 1011.6
20260507174509 93 126 2.0 7.0 0.00 0.00 0.00 60 1011.7
20260507174402 93 121 2.0 7.0 0.00 0.00 0.00 59 1011.8
20260507173945 92 243 2.0 6.0 0.00 0.00 0.00 60 1011.8
20260507173933 93 191 1.0 4.0 0.00 0.00 0.00 59 1011.8
20260507173013 92 306 2.0 7.0 0.00 0.00 0.00 59 1011.6
20260507172902 93 273 2.0 7.0 0.00 0.00 0.00 59 1011.7
20260507172401 92 209 2.0 7.0 0.00 0.00 0.00 59 1011.7
20260507171944 92 292 2.0 6.0 0.00 0.00 0.00 61 1011.9
20260507171934 92 261 2.0 6.0 0.00 0.00 0.00 59 1011.7
20260507171614 92 228 1.0 5.0 0.00 0.00 0.00 60 1011.6
20260507170904 92 312 3.0 7.0 0.00 0.00 0.00 60 1011.9
20260507170402 93 265 2.0 7.0 0.00 0.00 0.00 58 1011.9
20260507170005 92 217 2.0 9.0 0.00 0.00 0.00 60 1011.9
20260507165904 93 242 2.0 10.0 0.00 0.00 0.00 60 1012.0
20260507165403 92 205 2.0 10.0 0.00 0.00 0.00 59 1012.0
20260507164903 91 284 2.0 6.0 0.00 0.00 0.00 61 1012.0
20260507164503 91 140 0.0 7.0 0.00 0.00 0.00 60 1012.3
20260507164402 91 245 2.0 7.0 0.00 0.00 0.00 62 1012.5
20260507164151 91 157 2.0 7.0 0.00 0.00 0.00 62 1012.5
20260507163648 92 223 2.0 8.0 0.00 0.00 0.00 60 1012.5
20260507163005 92 230 3.0 8.0 0.00 0.00 0.00 60 1012.4
20260507162904 92 249 3.0 8.0 0.00 0.00 0.00 61 1012.6
20260507162402 92 278 3.0 8.0 0.00 0.00 0.00 61 1012.6
20260507161901 92 206 3.0 8.0 0.00 0.00 0.00 62 1012.6
20260507161502 91 220 3.0 6.0 0.00 0.00 0.00 62 1012.4
20260507161449 91 222 2.0 5.0 0.00 0.00 0.00 62 1012.6
20260507161437 92 221 2.0 6.0 0.00 0.00 0.00 62 1012.6
20260507160403 91 241 1.0 5.0 0.00 0.00 0.00 65 1012.6
20260507160008 90 204 1.0 6.0 0.00 0.00 0.00 65 1012.5
20260507155904 91 220 2.0 7.0 0.00 0.00 0.00 66 1012.6
20260507155647 90 219 2.0 7.0 0.00 0.00 0.00 66 1012.6
20260507154902 90 186 1.0 5.0 0.00 0.00 0.00 66 1012.6
20260507154505 89 263 1.0 5.0 0.00 0.00 0.00 67 1012.8
20260507154402 90 115 1.0 5.0 0.00 0.00 0.00 66 1013.0
20260507153904 89 221 2.0 6.0 0.00 0.00 0.00 67 1013.0
20260507153405 89 156 2.0 6.0 0.00 0.00 0.00 68 1013.0
20260507153011 89 119 1.0 5.0 0.00 0.00 0.00 68 1012.9
20260507152904 89 242 1.0 5.0 0.00 0.00 0.00 68 1013.1
20260507152350 89 227 1.0 7.0 0.00 0.00 0.00 67 1013.1
20260507151846 88 227 2.0 7.0 0.00 0.00 0.00 68 1013.1
20260507151505 87 213 1.0 7.0 0.00 0.00 0.00 70 1012.9
20260507151331 87 240 2.0 7.0 0.00 0.00 0.00 68 1013.1
20260507150831 87 246 3.0 7.0 0.00 0.00 0.00 69 1013.1
20260507150329 87 229 2.0 6.0 0.00 0.00 0.00 70 1013.1
20260507150004 86 236 3.0 6.0 0.00 0.00 0.00 70 1012.9
20260507145829 86 219 3.0 10.0 0.00 0.00 0.00 71 1013.1
20260507145332 85 220 3.0 10.0 0.00 0.00 0.00 71 1013.1
20260507144829 86 221 3.0 8.0 0.00 0.00 0.00 71 1013.1
20260507144557 85 239 2.0 8.0 0.00 0.00 0.00 71 1013.0
20260507144329 86 222 3.0 8.0 0.00 0.00 0.00 70 1013.1
20260507143830 86 200 2.0 8.0 0.00 0.00 0.00 71 1013.1
20260507143615 85 269 2.0 8.0 0.00 0.00 0.00 72 1013.1
20260507143044 84 225 2.0 8.0 0.00 0.00 0.00 72 1013.0
20260507142829 84 214 3.0 9.0 0.00 0.00 0.00 72 1013.1
20260507142602 84 223 3.0 9.0 0.00 0.00 0.00 73 1013.1
20260507141830 84 226 2.0 7.0 0.00 0.00 0.00 71 1013.1
20260507141532 83 255 1.0 7.0 0.00 0.00 0.00 73 1013.1
20260507141333 83 222 2.0 7.0 0.00 0.00 0.00 73 1013.2
20260507140830 83 209 3.0 7.0 0.00 0.00 0.00 73 1013.2
20260507140329 83 153 2.0 5.0 0.00 0.00 0.00 75 1013.2
20260507140022 82 214 1.0 5.0 0.00 0.00 0.00 74 1013.0
20260507135830 82 213 2.0 6.0 0.00 0.00 0.00 74 1013.2
20260507135329 82 142 3.0 8.0 0.00 0.00 0.00 75 1013.2
20260507134829 81 114 3.0 8.0 0.00 0.00 0.00 74 1013.2
20260507134503 81 208 2.0 7.0 0.00 0.00 0.00 76 1013.0
20260507134329 81 228 2.0 7.0 0.00 0.00 0.00 77 1013.2
20260507133829 81 213 2.0 7.0 0.00 0.00 0.00 76 1013.2
20260507133330 80 163 2.0 7.0 0.00 0.00 0.00 78 1013.2
20260507133111 80 117 1.0 7.0 0.00 0.00 0.00 77 1013.0
20260507132829 80 252 2.0 7.0 0.00 0.00 0.00 78 1013.2
20260507132330 79 234 2.0 7.0 0.00 0.00 0.00 78 1013.2
20260507131829 79 215 1.0 4.0 0.00 0.00 0.00 81 1013.2
20260507131547 78 226 1.0 4.0 0.00 0.00 0.00 82 1013.1
20260507131331 79 200 1.0 6.0 0.00 0.00 0.00 83 1013.1
20260507130829 78 223 1.0 6.0 0.00 0.00 0.00 84 1013.1
20260507130329 78 220 1.0 5.0 0.00 0.00 0.00 85 1013.1
20260507130122 77 157 0.0 3.0 0.00 0.00 0.00 85 1013.2
20260507130045 77 205 0.0 3.0 0.00 0.00 0.00 85 1013.1
20260507125329 77 208 1.0 3.0 0.00 0.00 0.00 86 1013.2
20260507124829 76 200 1.0 3.0 0.00 0.00 0.00 86 1013.2
20260507124623 76 154 1.0 3.0 0.00 0.00 0.00 87 1013.1
20260507124544 76 215 1.0 3.0 0.00 0.00 0.00 86 1013.0
20260507123829 76 240 1.0 3.0 0.00 0.00 0.00 87 1013.1
20260507123330 75 215 1.0 5.0 0.00 0.00 0.00 87 1013.1
20260507123012 75 216 1.0 5.0 0.00 0.00 0.00 88 1013.0
20260507122829 75 219 1.0 5.0 0.00 0.00 0.00 88 1013.1
20260507122330 75 236 1.0 3.0 0.00 0.00 0.00 88 1013.1
20260507122122 74 160 1.0 4.0 0.00 0.00 0.00 89 1013.1
20260507121505 74 197 0.0 4.0 0.00 0.00 0.00 89 1013.0
20260507121331 74 229 0.0 4.0 0.00 0.00 0.00 89 1013.1
20260507121125 74 223 0.0 1.0 0.00 0.00 0.00 90 1013.1
20260507120330 74 211 0.0 1.0 0.00 0.00 0.00 91 1013.1
20260507120010 73 211 0.0 1.0 0.00 0.00 0.00 92 1012.9
20260507115830 73 211 0.0 1.0 0.00 0.00 0.00 92 1013.1
20260507115329 73 211 0.0 2.0 0.00 0.00 0.00 93 1013.1
20260507114829 73 207 0.0 2.0 0.00 0.00 0.00 93 1013.1
20260507114506 71 202 0.0 2.0 0.00 0.00 0.00 93 1012.9
20260507114329 72 198 0.0 2.0 0.00 0.00 0.00 93 1013.0
20260507114123 71 178 0.0 1.0 0.00 0.00 0.00 94 1013.0
20260507113330 71 178 0.0 1.0 0.00 0.00 0.00 94 1013.0
20260507113005 70 178 0.0 1.0 0.00 0.00 0.00 94 1012.8
20260507112830 70 245 0.0 0.0 0.00 0.00 0.00 94 1013.0
20260507112328 69 245 0.0 0.0 0.00 0.00 0.00 94 1013.0
20260507111830 69 245 0.0 0.0 0.00 0.00 0.00 94 1013.0
20260507111509 68 245 0.0 0.0 0.00 0.00 0.00 94 1012.5
20260507111328 68 245 0.0 0.0 0.00 0.00 0.00 94 1012.7
20260507111211 68 245 0.0 0.0 0.00 0.00 0.00 94 1012.7
20260507110858 68 245 0.0 0.0 0.00 0.00 0.00 94 1012.7
20260507110005 67 245 0.0 0.0 0.00 0.00 0.00 94 1012.5
20260507105830 67 245 0.0 0.0 0.00 0.00 0.00 94 1012.6
20260507105329 67 245 0.0 0.0 0.00 0.00 0.00 94 1012.6
20260507105124 67 245 0.0 0.0 0.00 0.00 0.00 93 1012.6
20260507104507 67 245 0.0 0.0 0.00 0.00 0.00 93 1012.2
20260507104329 67 245 0.0 0.0 0.00 0.00 0.00 93 1012.3
20260507103830 67 245 0.0 0.0 0.00 0.00 0.00 93 1012.3
20260507103622 67 245 0.0 0.0 0.00 0.00 0.00 93 1012.3
20260507103120 67 245 0.0 0.0 0.00 0.00 0.00 93 1012.0
20260507103050 67 245 0.0 0.0 0.00 0.00 0.00 93 1011.9
20260507102331 67 245 0.0 0.0 0.00 0.00 0.00 93 1012.0
20260507101835 67 245 0.0 0.0 0.00 0.00 0.00 93 1012.0
20260507101512 66 245 0.0 0.0 0.00 0.00 0.00 93 1011.7
20260507101330 67 245 0.0 0.0 0.00 0.00 0.00 93 1011.8
20260507100830 67 245 0.0 0.0 0.00 0.00 0.00 93 1011.8
20260507100331 67 245 0.0 0.0 0.00 0.00 0.00 93 1011.8
20260507100115 66 245 0.0 0.0 0.00 0.00 0.00 93 1012.0
20260507100044 66 245 0.0 0.0 0.00 0.00 0.00 93 1011.9
20260507095330 66 245 0.0 0.0 0.00 0.00 0.00 93 1012.0
20260507094831 67 245 0.0 0.0 0.00 0.00 0.00 93 1012.0
20260507094614 67 245 0.0 0.0 0.00 0.00 0.00 93 1011.7
20260507094544 66 245 0.0 0.0 0.00 0.00 0.00 93 1011.6
20260507093831 67 245 0.0 0.0 0.00 0.00 0.00 93 1011.7
20260507093411 67 245 0.0 0.0 0.00 0.00 0.00 93 1011.6
20260507093402 67 245 0.0 0.0 0.00 0.00 0.00 93 1011.7
20260507093051 66 245 0.0 0.0 0.00 0.00 0.00 93 1011.5
20260507092329 67 245 0.0 0.0 0.00 0.00 0.00 92 1011.6
20260507091851 67 245 0.0 0.0 0.00 0.00 0.00 92 1011.5
20260507091843 67 245 0.0 0.0 0.00 0.00 0.00 92 1011.6
20260507091538 67 245 0.0 0.0 0.00 0.00 0.00 92 1011.4
20260507090814 67 245 0.0 0.0 0.00 0.00 0.00 92 1011.5
20260507090557 67 245 0.0 0.0 0.00 0.00 0.00 92 1011.5
20260507090004 67 245 0.0 0.0 0.00 0.00 0.00 92 1011.3
20260507085813 67 245 0.0 0.0 0.00 0.00 0.00 92 1011.4
20260507085313 68 245 0.0 0.0 0.00 0.00 0.00 92 1011.4
20260507084813 68 245 0.0 0.0 0.00 0.00 0.00 92 1011.4
20260507084507 67 245 0.0 0.0 0.00 0.00 0.00 92 1011.1
20260507084310 68 245 0.0 0.0 0.00 0.00 0.00 92 1011.3
20260507083809 68 245 0.0 0.0 0.00 0.00 0.00 92 1011.3
20260507083307 68 245 0.0 0.0 0.00 0.00 0.00 92 1011.3
20260507083043 68 245 0.0 0.0 0.00 0.00 0.00 92 1011.2
20260507082804 68 245 0.0 0.0 0.00 0.00 0.00 92 1011.4
20260507082306 68 245 0.0 0.0 0.00 0.00 0.00 92 1011.4
20260507081803 68 245 0.0 0.0 0.00 0.00 0.00 92 1011.4
20260507081549 68 245 0.0 0.0 0.00 0.00 0.00 92 1011.4
20260507081529 68 245 0.0 0.0 0.00 0.00 0.00 92 1011.2
20260507080804 69 245 0.0 0.0 0.00 0.00 0.00 91 1011.4
20260507080301 69 245 0.0 0.0 0.00 0.00 0.00 91 1011.4
20260507080019 68 245 0.0 0.0 0.00 0.00 0.00 91 1011.4
20260507075800 69 245 0.0 0.0 0.00 0.00 0.00 91 1011.5
20260507075307 69 245 0.0 0.0 0.00 0.00 0.00 91 1011.5
20260507074803 69 245 0.0 0.0 0.00 0.00 0.00 91 1011.5
20260507074504 69 245 0.0 0.0 0.00 0.00 0.00 91 1011.4
20260507074302 69 245 0.0 0.0 0.00 0.00 0.00 91 1011.5
20260507073803 69 245 0.0 0.0 0.00 0.00 0.00 91 1011.5
20260507073339 69 245 0.0 0.0 0.00 0.00 0.00 91 1011.5
20260507073330 69 245 0.0 0.0 0.00 0.00 0.00 91 1011.5
20260507073012 69 245 0.0 0.0 0.00 0.00 0.00 91 1011.4
20260507072552 69 245 0.0 0.0 0.00 0.00 0.00 91 1011.5
20260507071802 70 245 0.0 0.0 0.00 0.00 0.00 91 1011.5
20260507071503 69 245 0.0 0.0 0.00 0.00 0.00 91 1011.5
20260507071303 70 245 0.0 0.0 0.00 0.00 0.00 91 1011.7
20260507070804 70 245 0.0 0.0 0.00 0.00 0.00 91 1011.7
20260507070303 70 245 0.0 0.0 0.00 0.00 0.00 90 1011.7
20260507070009 69 245 0.0 0.0 0.00 0.00 0.00 90 1012.0
20260507065803 70 245 0.0 0.0 0.00 0.00 0.00 90 1012.1
20260507065305 70 245 0.0 0.0 0.00 0.00 0.00 90 1012.1
20260507064804 70 245 0.0 0.0 0.00 0.00 0.00 90 1012.1
20260507064553 70 245 0.0 0.0 0.00 0.00 0.00 90 1012.1
20260507064516 70 245 0.0 0.0 0.00 0.00 0.00 90 1012.0
20260507063803 71 245 0.0 0.0 0.00 0.00 0.00 90 1012.1
20260507063303 71 245 0.0 1.0 0.00 0.00 0.00 89 1012.1
20260507063006 71 245 0.0 1.0 0.00 0.00 0.00 89 1012.0
20260507062804 71 245 0.0 1.0 0.00 0.00 0.00 89 1012.1
20260507062306 71 245 0.0 1.0 0.00 0.00 0.00 89 1012.1
20260507061801 71 245 0.0 1.0 0.00 0.00 0.00 89 1012.1
20260507061555 72 245 0.0 2.0 0.00 0.00 0.00 89 1012.5
20260507061551 71 245 0.0 1.0 0.00 0.00 0.00 89 1012.4
20260507061520 71 245 0.0 1.0 0.00 0.00 0.00 89 1012.4
20260507060801 72 245 1.0 3.0 0.00 0.00 0.00 89 1012.5
20260507060302 72 219 1.0 3.0 0.00 0.00 0.00 89 1012.5
20260507060037 72 234 0.0 3.0 0.00 0.00 0.00 89 1012.4
20260507055803 72 193 0.0 1.0 0.00 0.00 0.00 88 1012.6
20260507055305 73 193 0.0 1.0 0.00 0.00 0.00 88 1012.6
20260507054802 73 193 0.0 1.0 0.00 0.00 0.00 88 1012.6
20260507054602 72 193 0.0 1.0 0.00 0.00 0.00 88 1012.5
20260507054559 73 191 0.0 1.0 0.00 0.00 0.00 88 1012.7
20260507054519 72 193 0.0 1.0 0.00 0.00 0.00 88 1012.5
20260507053802 73 190 0.0 0.0 0.00 0.00 0.00 87 1012.7
20260507053301 73 190 0.0 0.0 0.00 0.00 0.00 87 1012.7
20260507053054 74 191 0.0 1.0 0.00 0.00 0.00 87 1013.0
20260507053016 73 191 0.0 0.0 0.00 0.00 0.00 87 1012.9
20260507052306 74 191 0.0 1.0 0.00 0.00 0.00 86 1013.0
20260507051803 74 175 0.0 1.0 0.00 0.00 0.00 86 1013.0
20260507051552 75 159 0.0 0.0 0.00 0.00 0.00 85 1012.8
20260507051515 74 159 0.0 0.0 0.00 0.00 0.00 85 1012.6
20260507050803 75 159 0.0 1.0 0.00 0.00 0.00 84 1012.8
20260507050304 75 159 0.0 1.0 0.00 0.00 0.00 84 1012.8
20260507050057 76 119 1.0 3.0 0.00 0.00 0.00 84 1012.6
20260507050018 75 137 0.0 3.0 0.00 0.00 0.00 84 1012.5
20260507045306 76 126 2.0 4.0 0.00 0.00 0.00 85 1012.6
20260507045052 76 115 2.0 5.0 0.00 0.00 0.00 85 1012.6
20260507044551 76 119 2.0 5.0 0.00 0.00 0.00 85 1012.7
20260507044515 75 132 2.0 5.0 0.00 0.00 0.00 85 1012.6
20260507044055 76 136 2.0 5.0 0.00 0.00 0.00 84 1012.7
20260507043302 76 123 2.0 5.0 0.00 0.00 0.00 84 1012.7
20260507043007 76 127 2.0 3.0 0.00 0.00 0.00 84 1012.6
20260507042804 76 111 2.0 3.0 0.00 0.00 0.00 84 1012.7
20260507042306 76 104 2.0 3.0 0.00 0.00 0.00 84 1012.7
20260507041801 76 115 2.0 6.0 0.00 0.00 0.00 84 1012.7
20260507041600 76 113 2.0 6.0 0.00 0.00 0.00 84 1012.6
20260507041301 76 112 3.0 6.0 0.00 0.00 0.00 84 1013.0
20260507040800 76 127 2.0 5.0 0.00 0.00 0.00 83 1013.0
20260507040301 77 115 2.0 6.0 0.00 0.00 0.00 83 1013.0
20260507040032 76 102 2.0 4.0 0.00 0.00 0.00 83 1012.5
20260507035803 77 107 3.0 6.0 0.00 0.00 0.00 83 1012.6
20260507035305 77 116 3.0 7.0 0.00 0.00 0.00 83 1012.6
20260507034802 77 125 3.0 7.0 0.00 0.00 0.00 83 1012.6
20260507034558 77 94 3.0 6.0 0.00 0.00 0.00 83 1012.6
20260507034555 76 94 3.0 7.0 0.00 0.00 0.00 83 1012.4
20260507034518 76 102 3.0 7.0 0.00 0.00 0.00 83 1012.4
20260507033801 77 119 3.0 7.0 0.00 0.00 0.00 84 1012.6
20260507033553 77 118 4.0 7.0 0.00 0.00 0.00 84 1012.6
20260507033004 76 98 3.0 7.0 0.00 0.00 0.00 84 1012.5
20260507032802 77 128 4.0 7.0 0.00 0.00 0.00 84 1012.6
20260507032305 77 103 4.0 8.0 0.00 0.00 0.00 84 1012.6
20260507031802 77 123 3.0 8.0 0.00 0.00 0.00 84 1012.6
20260507031503 77 111 4.0 8.0 0.00 0.00 0.00 83 1012.6
20260507031308 77 123 3.0 7.0 0.00 0.00 0.00 83 1012.8
20260507030757 77 118 3.0 6.0 0.00 0.00 0.00 83 1012.8
20260507030528 77 119 3.0 7.0 0.00 0.00 0.00 82 1012.8
20260507030002 77 136 3.0 7.0 0.00 0.00 0.00 82 1012.6
20260507025729 77 129 4.0 7.0 0.00 0.00 0.00 82 1012.8
20260507025228 77 101 4.0 7.0 0.00 0.00 0.00 82 1012.8
20260507024730 77 96 4.0 7.0 0.00 0.00 0.00 82 1012.8
20260507024505 77 120 3.0 7.0 0.00 0.00 0.00 81 1012.8
20260507024228 77 110 4.0 7.0 0.00 0.00 0.00 82 1012.9
20260507023730 77 92 4.0 7.0 0.00 0.00 0.00 81 1012.9
20260507023228 77 81 4.0 7.0 0.00 0.00 0.00 81 1012.9
20260507023003 77 107 3.0 8.0 0.00 0.00 0.00 81 1012.9
20260507022730 77 150 5.0 8.0 0.00 0.00 0.00 81 1013.0
20260507022231 77 111 5.0 8.0 0.00 0.00 0.00 81 1013.0
20260507021729 77 111 4.0 8.0 0.00 0.00 0.00 81 1013.0
20260507021502 77 103 4.0 7.0 0.00 0.00 0.00 81 1012.9
20260507021230 77 115 3.0 7.0 0.00 0.00 0.00 81 1013.0
20260507020729 77 121 3.0 6.0 0.00 0.00 0.00 81 1013.0
20260507020230 77 107 3.0 6.0 0.00 0.00 0.00 81 1013.0
20260507020004 77 106 3.0 7.0 0.00 0.00 0.00 80 1012.8
20260507015729 77 86 3.0 7.0 0.00 0.00 0.00 80 1013.0
20260507015230 77 115 3.0 7.0 0.00 0.00 0.00 80 1013.0
20260507014730 77 135 3.0 6.0 0.00 0.00 0.00 80 1013.0
20260507014602 77 124 2.0 6.0 0.00 0.00 0.00 80 1012.8
20260507014523 77 109 2.0 6.0 0.00 0.00 0.00 80 1012.8
20260507013730 78 122 3.0 5.0 0.00 0.00 0.00 80 1012.9
20260507013232 78 130 3.0 6.0 0.00 0.00 0.00 80 1012.9
20260507013042 77 109 3.0 6.0 0.00 0.00 0.00 79 1012.7
20260507012727 78 107 3.0 6.0 0.00 0.00 0.00 79 1012.9
20260507012511 78 116 3.0 6.0 0.00 0.00 0.00 79 1012.9
20260507011714 78 121 3.0 5.0 0.00 0.00 0.00 78 1012.9
20260507011534 77 113 2.0 5.0 0.00 0.00 0.00 78 1012.7
20260507011202 78 103 3.0 5.0 0.00 0.00 0.00 78 1012.8
20260507010702 78 105 3.0 5.0 0.00 0.00 0.00 78 1012.8
20260507010203 78 123 3.0 6.0 0.00 0.00 0.00 78 1012.8
20260507010011 78 113 3.0 7.0 0.00 0.00 0.00 77 1012.6
20260507005702 78 124 4.0 7.0 0.00 0.00 0.00 77 1012.8
20260507005202 78 121 3.0 7.0 0.00 0.00 0.00 77 1012.8
20260507004704 78 129 3.0 5.0 0.00 0.00 0.00 76 1012.8
20260507004504 78 109 3.0 4.0 0.00 0.00 0.00 76 1012.5
20260507004204 78 120 3.0 5.0 0.00 0.00 0.00 76 1012.6
20260507003702 78 101 3.0 7.0 0.00 0.00 0.00 76 1012.6
20260507003204 79 118 3.0 7.0 0.00 0.00 0.00 74 1012.6
20260507003004 78 111 3.0 5.0 0.00 0.00 0.00 74 1012.4
20260507002702 79 102 3.0 8.0 0.00 0.00 0.00 74 1012.6
20260507002449 79 115 5.0 8.0 0.00 0.00 0.00 73 1012.6
20260507001718 79 119 5.0 8.0 0.00 0.00 0.00 73 1012.6
20260507001619 79 134 4.0 8.0 0.00 0.00 0.00 73 1012.4
20260507001200 79 115 5.0 8.0 0.00 0.00 0.00 73 1012.6
20260507000948 79 115 4.0 8.0 0.00 0.00 0.00 72 1012.6
20260507000201 79 109 4.0 8.0 0.00 0.00 0.00 72 1012.6
20260507000049 79 94 3.0 8.0 0.00 0.00 0.00 71 1012.4
20260506235702 80 116 4.0 10.0 0.00 0.00 0.00 72 1012.5
20260506235203 80 114 5.0 10.0 0.00 0.00 0.00 70 1012.5
20260506234701 80 132 6.0 11.0 0.00 0.00 0.00 71 1012.5
20260506234545 80 110 5.0 11.0 0.00 0.00 0.00 69 1012.4
20260506234201 80 126 8.0 15.0 0.00 0.00 0.00 68 1012.6
20260506233956 80 108 7.0 15.0 0.00 0.00 0.00 66 1012.6
20260506233452 81 101 6.0 10.0 0.00 0.00 0.00 67 1012.6
20260506233049 80 103 6.0 10.0 0.00 0.00 0.00 67 1012.4
20260506232702 81 82 6.0 11.0 0.00 0.00 0.00 67 1012.6
20260506232202 81 88 7.0 11.0 0.00 0.00 0.00 67 1012.6
20260506231701 81 96 8.0 13.0 0.00 0.00 0.00 64 1012.6
20260506231540 81 96 7.0 13.0 0.00 0.00 0.00 63 1012.5
20260506231201 82 123 8.0 15.0 0.00 0.00 0.00 63 1012.6
20260506230701 82 92 8.0 15.0 0.00 0.00 0.00 63 1012.6
20260506230203 82 138 8.0 13.0 0.00 0.00 0.00 63 1012.6
20260506230032 81 126 8.0 13.0 0.00 0.00 0.00 62 1012.4
20260506225702 82 105 8.0 13.0 0.00 0.00 0.00 63 1012.6
20260506225202 82 110 8.0 14.0 0.00 0.00 0.00 64 1012.6
20260506224701 82 122 8.0 14.0 0.00 0.00 0.00 62 1012.6
20260506224527 82 96 8.0 14.0 0.00 0.00 0.00 64 1012.4
20260506224200 83 118 8.0 14.0 0.00 0.00 0.00 65 1012.5
20260506224051 83 117 7.0 14.0 0.00 0.00 0.00 64 1012.5
20260506224045 82 119 8.0 14.0 0.00 0.00 0.00 64 1012.5